GW1724 Weather Reports


Display with metric or nautical units.
time (UTC)temp
F
wind
direction
speed
MPH
gust
MPH
rain 1hr
in
rain 24hr
in
rain mn
in
humidity
%
barometer
mb
20260510191549 81 129 2.0 9.0 0.00 0.00 0.00 42 1013.2
20260510190038 82 27 2.0 6.0 0.00 0.00 0.00 37 1013.3
20260510184538 84 89 4.0 11.0 0.00 0.00 0.00 33 1013.1
20260510183035 83 38 3.0 9.0 0.00 0.00 0.00 34 1013.1
20260510181541 82 76 1.0 7.0 0.00 0.00 0.00 38 1013.3
20260510180040 82 234 3.0 9.0 0.00 0.00 0.00 36 1013.4
20260510174540 81 0 3.0 8.0 0.00 0.00 0.00 37 1013.4
20260510173036 80 300 3.0 9.0 0.00 0.00 0.00 37 1013.6
20260510171537 81 258 4.0 8.0 0.00 0.00 0.00 36 1013.8
20260510170036 81 261 2.0 8.0 0.00 0.00 0.00 34 1014.0
20260510164539 80 232 2.0 7.0 0.00 0.00 0.00 39 1013.9
20260510163037 79 315 3.0 9.0 0.00 0.00 0.00 42 1013.9
20260510161536 79 272 1.0 7.0 0.00 0.00 0.00 42 1014.0
20260510160052 78 304 2.0 7.0 0.00 0.00 0.00 43 1014.0
20260510154540 78 240 1.0 7.0 0.00 0.00 0.00 44 1014.2
20260510153042 77 244 1.0 7.0 0.00 0.00 0.00 44 1014.3
20260510151540 77 262 2.0 8.0 0.00 0.00 0.00 48 1014.4
20260510150036 76 301 4.0 9.0 0.00 0.00 0.00 48 1014.3
20260510144544 76 86 1.0 4.0 0.00 0.00 0.00 52 1014.1
20260510143040 75 162 1.0 8.0 0.00 0.00 0.00 54 1014.2
20260510141538 74 111 1.0 7.0 0.00 0.00 0.00 55 1014.2
20260510140037 73 264 1.0 4.0 0.00 0.00 0.00 57 1014.1
20260510134536 72 316 1.0 3.0 0.00 0.00 0.00 59 1014.0
20260510133042 70 225 0.0 4.0 0.00 0.00 0.00 63 1014.0
20260510131542 70 248 1.0 4.0 0.00 0.00 0.00 63 1014.1
20260510130040 68 300 1.0 4.0 0.00 0.00 0.00 67 1014.0
20260510124539 67 251 0.0 4.0 0.00 0.00 0.00 71 1013.9
20260510123036 65 0 0.0 0.0 0.00 0.00 0.00 77 1013.8
20260510121536 63 0 0.0 0.0 0.00 0.00 0.00 82 1013.8
20260510120034 61 0 0.0 0.0 0.00 0.00 0.00 85 1013.6
20260510114537 59 0 0.0 0.0 0.00 0.00 0.00 88 1013.4
20260510113040 57 0 0.0 0.0 0.00 0.00 0.00 93 1013.3
20260510111547 56 0 0.0 0.0 0.00 0.00 0.00 94 1013.2
20260510110038 55 0 0.0 0.0 0.00 0.00 0.00 94 1013.1
20260510104534 54 0 0.0 0.0 0.00 0.00 0.00 94 1012.9
20260510103041 54 0 0.0 0.0 0.00 0.00 0.00 93 1012.3
20260510101537 55 0 0.0 0.0 0.00 0.00 0.00 92 1012.1
20260510100036 55 0 0.0 0.0 0.00 0.00 0.00 91 1011.9
20260510094535 56 0 0.0 0.0 0.00 0.00 0.00 93 1011.7
20260510093058 55 0 0.0 0.0 0.00 0.00 0.00 92 1011.5
20260510091540 56 0 0.0 0.0 0.00 0.00 0.00 92 1011.4
20260510090050 56 0 0.0 0.0 0.00 0.00 0.00 91 1011.3
20260510084537 57 0 0.0 0.0 0.00 0.00 0.00 91 1011.2
20260510083036 57 0 0.0 0.0 0.00 0.00 0.00 92 1011.1
20260510081555 57 0 0.0 0.0 0.00 0.00 0.00 90 1010.8
20260510080046 57 0 0.0 0.0 0.00 0.00 0.00 89 1010.8
20260510074543 58 0 0.0 0.0 0.00 0.00 0.00 89 1010.8
20260510073036 58 0 0.0 0.0 0.00 0.00 0.00 88 1010.7
20260510071537 59 0 0.0 0.0 0.00 0.00 0.00 88 1010.8
20260510070035 60 0 0.0 1.0 0.00 0.00 0.00 84 1010.8
20260510064538 61 0 0.0 2.0 0.00 0.00 0.00 83 1010.7
20260510063037 62 0 0.0 2.0 0.00 0.00 0.00 83 1010.8
20260510061536 62 0 0.0 4.0 0.00 0.00 0.00 82 1010.9
20260510060038 63 0 0.0 6.0 0.00 0.00 0.00 81 1010.8
20260510054541 62 248 1.0 6.0 0.00 0.00 0.00 82 1010.9
20260510053041 61 225 0.0 5.0 0.00 0.00 0.00 83 1010.9
20260510051537 61 0 0.0 2.0 0.00 0.00 0.00 83 1010.9
20260510050039 60 171 0.0 1.0 0.00 0.00 0.00 83 1010.9
20260510044551 60 0 0.0 0.0 0.00 0.00 0.00 83 1010.9
20260510043035 60 0 0.0 0.0 0.00 0.00 0.00 83 1010.9
20260510041537 60 0 0.0 0.0 0.00 0.00 0.00 82 1010.8
20260510040038 60 0 0.0 0.0 0.00 0.00 0.00 81 1010.8
20260510034536 60 0 0.0 1.0 0.00 0.00 0.00 82 1010.7
20260510033035 60 0 0.0 1.0 0.00 0.00 0.00 81 1010.7
20260510031541 60 0 0.0 0.0 0.00 0.00 0.00 80 1010.5
20260510030041 60 0 0.0 0.0 0.00 0.00 0.00 80 1010.4
20260510024539 60 0 0.0 0.0 0.00 0.00 0.00 79 1010.2
20260510023037 60 0 0.0 1.0 0.00 0.00 0.00 79 1010.1
20260510021541 60 0 0.0 0.0 0.00 0.00 0.00 78 1010.1
20260510020043 61 0 0.0 0.0 0.00 0.00 0.00 77 1010.1
20260510014540 61 0 0.0 0.0 0.00 0.00 0.00 77 1009.9
20260510013036 62 0 0.0 0.0 0.00 0.00 0.00 75 1009.7
20260510011536 63 0 0.0 0.0 0.00 0.00 0.00 74 1009.7
20260510010036 64 0 0.0 0.0 0.00 0.00 0.00 71 1009.5
20260510004536 65 0 0.0 0.0 0.00 0.00 0.00 69 1009.4
20260510003043 66 0 0.0 0.0 0.00 0.00 0.00 67 1009.2
20260510001536 68 0 0.0 0.0 0.00 0.00 0.00 63 1009.0
20260510000038 69 0 0.0 0.0 0.00 0.00 0.00 60 1008.9
20260509234541 71 0 0.0 0.0 0.00 0.00 0.00 58 1008.7
20260509233043 72 0 0.0 1.0 0.00 0.00 0.00 55 1008.7
20260509231544 73 0 0.0 2.0 0.00 0.00 0.00 52 1008.7
20260509230038 74 0 0.0 3.0 0.00 0.00 0.00 51 1008.6
20260509224539 74 270 1.0 4.0 0.00 0.00 0.00 50 1008.7
20260509223036 75 269 1.0 7.0 0.00 0.00 0.00 49 1008.8
20260509221539 76 288 3.0 9.0 0.00 0.00 0.00 47 1008.7
20260509220043 75 322 2.0 9.0 0.00 0.00 0.00 48 1008.7
20260509214539 74 261 2.0 7.0 0.00 0.00 0.00 50 1008.7
20260509213047 74 283 2.0 9.0 0.00 0.00 0.00 47 1008.5
20260509211543 75 242 4.0 9.0 0.00 0.00 0.00 46 1008.4
20260509210037 75 259 4.0 11.0 0.00 0.00 0.00 45 1008.4
20260509204536 75 223 3.0 10.0 0.00 0.00 0.00 46 1008.3
20260509203103 75 263 5.0 10.0 0.00 0.00 0.00 45 1008.4
20260509201541 74 259 3.0 7.0 0.00 0.00 0.00 46 1008.5
20260509200047 75 254 3.0 10.0 0.00 0.00 0.00 45 1008.6
20260509194536 76 260 5.0 15.0 0.00 0.00 0.00 44 1008.6
20260509193046 76 267 4.0 13.0 0.00 0.00 0.00 42 1009.1